User: anonymous   Login
Location: ??????
(42.0089°N, 44.3281°E)
Time: 08:28:14
(UTC+00:00)
Language:

Meteor 1-16 Rocket - Orbit

View from above orbital plane
View from above orbital plane
View from above satellite
View from above satellite

Ground track
Ground track

The orbit data is extracted from the following two-line orbital elements,

1  7210U 74011B   22019.76435168  .00000132  00000-0  62471-4 0  9997
2  7210  81.2349 204.9149 0079825 287.3027  71.9423 14.13124978466897
Epoch (UTC): 19 January 2022 18:20:39
Eccentricity: 0.0079825
inclination: 81.2349°
perigee height: 791 km
apogee height: 906 km
right ascension of ascending node: 204.9149°
argument of perigee: 287.3027°
revolutions per day: 14.13124978
mean anomaly at epoch: 71.9423°
orbit number at epoch: 46689

The dashed part of the orbit path shows where the satellite is in the earth's shadow,  

DLR